Location: Caixon
(43.4106°N, 0.0273°E)
Time: 16:06:55
(UTC+00:00)

Cosmos 2360 Rocket - Pass Details

Date: 16 October 2021
Orbit: 832 x 846 km, 71.0° (Epoch: 28 November)

Event Time Altitude Azimuth Distance (km) Brightness Sun altitude
Rises 05:26:02 0° 339° (NNW) 3,414 5.1 -9.7°
Reaches altitude 10° 05:28:35 10° 345° (NNW) 2,476 4.5 -9.2°
Maximum altitude 05:34:04 48° 59° (ENE) 1,097 3.3 -8.2°
Drops below altitude 10° 05:39:32 10° 134° (SE) 2,463 5.5 -7.2°
Sets 05:42:04 0° 140° (SE) 3,394 6.1 -6.8°
